FW4151 Weather Reports


time (UTC)temp
F
wind
direction
speed
knots
gust
knots
rain 1hr
in
rain 24hr
in
rain mn
in
humidity
%
barometer
mb
20260504034652 44 0.0 0.0 0.00 0.00 0.00 62 1011.0
20260504033051 45 0.0 0.0 0.00 0.00 0.00 61 1010.9
20260504031551 45 0.0 0.0 0.00 0.00 0.00 59 1011.0
20260504030049 46 0.0 0.0 0.00 0.00 0.00 58 1011.0
20260504024549 47 0.0 0.0 0.00 0.00 0.00 56 1011.2
20260504023049 47 0.0 0.0 0.00 0.00 0.00 56 1011.3
20260504021549 47 0.0 0.0 0.00 0.00 0.00 56 1011.4
20260504020047 47 0.0 0.0 0.00 0.00 0.00 54 1011.3
20260504014600 47 0.0 0.0 0.00 0.00 0.00 53 1011.3
20260504013051 47 0.0 0.0 0.00 0.00 0.00 56 1011.1
20260504011547 48 0.0 0.0 0.00 0.00 0.00 53 1011.1
20260504010048 48 0.0 0.0 0.00 0.00 0.00 51 1011.0
20260504004547 48 0.0 0.0 0.00 0.00 0.00 51 1010.8
20260504003050 49 0.0 0.0 0.00 0.00 0.00 51 1010.7
20260504001545 49 0.0 0.0 0.00 0.00 0.00 51 1010.4
20260504000047 50 0.0 0.0 0.00 0.00 0.00 48 1010.4
20260503234548 51 0.0 0.0 0.00 0.00 0.00 47 1010.3
20260503233042 51 0.0 0.0 0.00 0.00 0.00 45 1010.2
20260503231542 51 0.0 0.0 0.00 0.00 0.00 46 1010.3
20260503230045 51 0.0 0.0 0.00 0.00 0.00 45 1010.2
20260503224539 52 0.0 0.0 0.00 0.00 0.00 45 1010.4
20260503223040 52 0.0 0.0 0.00 0.00 0.00 42 1010.3
20260503221538 53 0.0 0.0 0.00 0.00 0.00 44 1010.4
20260503220046 53 0.0 0.0 0.00 0.00 0.00 44 1010.5
20260503214536 52 0.0 0.0 0.00 0.00 0.00 43 1010.5
20260503213036 51 0.0 0.0 0.00 0.00 0.00 45 1010.5
20260503211536 51 0.0 0.0 0.00 0.00 0.00 45 1010.4
20260503210035 51 0.0 0.0 0.00 0.00 0.00 46 1010.5
20260503204534 51 0.0 0.0 0.00 0.00 0.00 45 1010.6
20260503203034 51 0.0 0.0 0.00 0.00 0.00 42 1010.5
20260503201534 52 0.0 0.0 0.00 0.00 0.00 38 1010.5
20260503200032 52 0.0 0.0 0.00 0.00 0.00 38 1010.4
20260503194531 52 0.0 0.0 0.00 0.00 0.00 38 1010.8
20260503193034 53 0.0 0.0 0.00 0.00 0.00 37 1010.9
20260503191528 53 0.0 0.0 0.00 0.00 0.00 36 1010.9
20260503190033 53 0.0 0.0 0.00 0.00 0.00 34 1011.0
20260503184525 53 0.0 0.0 0.00 0.00 0.00 40 1011.1
20260503183034 52 0.0 0.0 0.00 0.00 0.00 37 1011.5
20260503181519 51 0.0 0.0 0.00 0.00 0.00 43 1011.5
20260503180019 50 0.0 0.0 0.00 0.00 0.00 40 1011.6
20260503174512 49 0.0 0.0 0.00 0.00 0.00 43 1012.0
20260503173012 49 0.0 0.0 0.00 0.00 0.00 40 1012.2
20260503171513 49 0.0 0.0 0.00 0.00 0.00 41 1012.3
20260503160105 46 0.0 0.0 0.00 0.00 0.00 40 1012.8
20260503081610 34 0.0 0.0 0.00 0.00 0.00 80 1012.1
20260503071542 34 0.0 0.0 0.00 0.01 0.00 80 1012.0
20260503070139 34 0.0 0.0 0.00 0.01 0.00 80 1012.0
20260503054530 35 0.0 0.0 0.00 0.01 0.00 78 1012.5
20260503053029 35 0.0 0.0 0.00 0.01 0.00 77 1012.6
20260503051526 35 0.0 0.0 0.00 0.01 0.00 76 1012.7
20260503050034 35 0.0 0.0 0.00 0.01 0.00 76 1013.0
20260503044523 35 0.0 0.0 0.00 0.01 0.00 75 1013.1
20260503043021 36 0.0 0.0 0.00 0.01 0.00 74 1013.2
20260503041519 36 0.0 0.0 0.00 0.01 0.00 72 1013.4
20260503040016 36 0.0 0.0 0.00 0.01 0.00 72 1013.3